Regional Weather Roundup
Issued by NWS Newport/Morehead, NC

Home | Current Version | Previous Version | Text Only | Print | Product List | Glossary On
Versions: 1 2 3 4 5 6 7 8 9 10 11 12 13 14 15 16 17 18 19 20 21 22 23 24 25 26 27 28 29 30 31 32 33 34 35 36 37 38 39 40 41
000
ASUS42 KMHX 180725
RWRMHX
WEATHER ROUNDUP FOR EASTERN NORTH CAROLINA
NATIONAL WEATHER SERVICE NEWPORT/MOREHEAD CITY NC
300 AM EDT FRI AUG 18 2017

NOTE: "FAIR" INDICATES FEW OR NO CLOUDS BELOW 12,000 FEET
WITH NO SIGNIFICANT WEATHER AND/OR OBSTRUCTIONS TO VISIBILITY

NCZ015>017-031-032-045>047-102-103-180800-
NORTH COAST

CITY           SKY/WX    TMP DP  RH WIND       PRES   REMARKS
EDENTON        CLEAR     81  78  90 CALM      29.95F
ELIZABETH CITY CLEAR     79  77  94 S7        29.95S
KITTY HAWK     SUNNY     81  73  78 CALM      29.94F
MANTEO         CLEAR     82  75  80 SW16      29.95F

$$

NCZ045>047-081-094-103-104-180800-
CENTRAL COAST

CITY           SKY/WX    TMP DP  RH WIND       PRES   REMARKS
FRISCO         PTCLDY    83  77  82 S13       29.96F

$$

NCZ095-097-098-100-101-180800-
SOUTHERN COAST

CITY           SKY/WX    TMP DP  RH WIND       PRES   REMARKS
BEAUFORT       CLEAR     83  81  94 S12       29.95F
CEDAR ISLAND   NOT AVBL
JACKSONVILLE   CLEAR     79  79 100 S5        29.94F
PINEY ISLAND   SUNNY    N/A N/A N/A S6        29.95F
WILMINGTON     CLEAR     80  79  96 S3        29.95F


$$

NCZ011>013-027>030-043-044-078>080-089-090>093-098-180800-
COASTAL PLAIN

CITY           SKY/WX    TMP DP  RH WIND       PRES   REMARKS
AHOSKIE          N/A     76  76  99 S5        29.93F FOG
CLINTON        CLEAR     75  75 100 CALM      29.94F
ELIZABETHTOWN  NOT AVBL
GOLDSBORO      CLEAR     76  76 100 S3        29.93F FOG
GREENVILLE     PTCLDY    79  79 100 S5        29.97
HAVELOCK       PTCLDY    81  78  91 S6        29.96F
KENANSVILLE    CLOUDY    77  77 100 CALM      29.94F FOG
KINSTON        CLOUDY    79  78  97 S6        29.95F
NEW BERN       PTCLDY    78  77  96 CALM      29.96F
RICHLANDS      PTCLDY    79  79 100 S3        29.95F
ROCKY MOUNT    CLEAR     75  75 100 S5        29.94F
WASHINGTON     PTCLDY    78  77  96 S5        29.95F
WHITEVILLE     NOT AVBL

$$

AMZ130-135-150-152-154-156-158-170-250-252-270-ANZ085-086-088-633-658-670-180800-
MARINE OBSERVATIONS

STATION/POSITION TIME  TEMP    WIND        PRES    WAVE   SWELL
                       AIR SEA DIR/SP/G            HT/PER HT/PER
                 (UTC) (F)     (DEG/KT/KT) (MB)    (FT/S) (FT/S)
CHESAPEAKE LIGHT NOT AVBL
64 E VA BEACH    0650   79 79  190/  8/ 10 1015.0    2/ 7   2/ 7
DUCK             0700   81 73  180/ 13/ 16 1013.7
2 E DUCK         0600      79                N/A     2/ 8
OREGON INLET     0700   82 83  160/ 12/ 16 1014.1
13E OREGON INLT  0648      80                N/A     2/ 7   2/ 7
HATTERAS CG      0700   83 84  170/ 12/ 15 1014.3
DIAMOND BUOY     0650   84 86  180/ 14/ 19 1014.6    2/ 7   2/ 7
CAPE LOOKOUT     0700   83     180/ 14/ 15 1014.0
BEAUFORT LAB     0700   83 82  190/ 13/ 14 1013.5
30 SE NEW RVR IN 0608   81 83  180/  8/ 12 1014.8
30 SE NEW RVR IN 0713      83                N/A     2/ 6
27 SE WRIGHTSVLE 0608   83 83  190/ 10/ 14 1014.6
5 SE WRIGHTSVLE  0608   83 83  200/ 10/ 16 1014.3
225 S CAPE HAT   0650   80 84  190/ 14/ 17 1016.2    2/ 5   2/ 7
41 SE CHARLESTON 0710   84 84  210/ 12/ 14 1014.3

$$




USA.gov is the U.S. government's official web portal to all federal, state and local government web resources and services.